This demonstration page uses our WeatherBlox Daily Observations layout. Learn more.

Left ArrowRight Arrow

31.31129, -92.44514

Hourly Observations for December 14, 2021

Temp ( °F °C ) Dew Point ( °F °C ) Humidity (%) Winds ( mph kmh ) Pressure ( in mb ) Visibility ( mi km ) Precip ( " mm )
12:53 am 00:53 Cloudy 59 15 55 12.8 87 87 Calm 30.29 1026 10 16 0.00 0.00
1:53 am 01:53 Cloudy 60 15.6 56 13.3 86 86 SE 5 7 30.29 1026 9 14 0.00 0.00
2:53 am 02:53 Cloudy 62 16.7 58 14.4 86 86 SE 5 7 30.29 1026 8 13 0.00 0.00
3:53 am 03:53 Cloudy 63 17.2 59 15 87 87 SE 6 9 30.29 1026 7 11 0.00 0.00
4:53 am 04:53 Cloudy 63 17.2 59 15 87 87 SSE 5 7 30.29 1026 7 11 0.00 0.00
5:53 am 05:53 Cloudy 63 17.2 60 15.6 90 90 SE 7 11 30.29 1026 8 13 0.00 0.00
6:40 am 06:40 Cloudy 63 17.2 60 15.6 90 90 SE 7 11 30.29 1026 8 13 0.00 0.00
7:53 am 07:53 Cloudy 64 17.8 61 16.1 90 90 ESE 6 9 30.31 1026 7 11 0.00 0.00
8:53 am 08:53 Cloudy 65 18.3 61 16.1 87 87 SE 6 9 30.32 1027 8 13 0.00 0.00
9:53 am 09:53 Cloudy 67 19.4 62 16.7 84 84 SSE 7 11 30.33 1027 9 14 0.00 0.00
10:10 am 10:10 Cloudy 68 20 62 16.7 81 81 SE 6 9 30.31 1026 9 14 0.00 0.00
10:53 am 10:53 Cloudy 72 22.2 64 17.8 76 76 SSE 6 9 30.31 1026 10 16 0.00 0.00
11:53 am 11:53 Mostly Cloudy 76 24.4 66 18.9 72 72 S 13 20 30.28 1025 10 16 0.00 0.00
12:53 pm 12:53 Cloudy 76 24.4 67 19.4 74 74 S 8 13 30.25 1024 10 16 0.00 0.00
1:53 pm 13:53 Cloudy 76 24.4 67 19.4 74 74 SW 5 7 30.23 1024 10 16 0.00 0.00
2:18 pm 14:18 Cloudy 76 24.4 67 19.4 74 74 WSW 5 7 30.22 1023 10 16 0.00 0.00
2:49 pm 14:49 Mostly Sunny 77 25 66 19 69 69 S 8 13 30.21 1023 10 16 0.00 0.00
2:53 pm 14:53 Mostly Sunny 78 25.6 68 20 71 71 SW 7 11 30.22 1023 10 16 0.00 0.00
3:13 pm 15:13 Mostly Cloudy 78 25.6 68 20 71 71 S 10 17 30.21 1023 10 16 0.00 0.00
3:29 pm 15:29 Partly Cloudy 77 25 67 19.4 71 71 SSE 9 15 30.21 1023 7 11 0.00 0.00
3:37 pm 15:37 Mostly Cloudy with Haze 76 24.4 67 19.4 74 74 SSE 10 17 30.21 1023 6 10 0.00 0.00
3:53 pm 15:53 Partly Cloudy 76 24.4 67 19.4 74 74 S 9 15 30.22 1023 7 11 0.00 0.00
4:53 pm 16:53 Cloudy 73 22.8 66 18.9 79 79 SSE 5 7 30.22 1023 8 13 0.00 0.00
5:53 pm 17:53 Cloudy 72 22.2 66 18.9 82 82 SE 5 7 30.22 1024 10 16 0.00 0.00
6:53 pm 18:53 Cloudy 72 22.2 66 18.9 82 82 SE 7 11 30.23 1024 10 16 0.00 0.00
7:53 pm 19:53 Mostly Cloudy 69 20.6 65 18.3 87 87 SE 8 13 30.25 1024 8 13 0.00 0.00
8:42 pm 20:42 Cloudy 70 21.1 66 18.9 87 87 SE 7 11 30.24 1024 9 14 0.00 0.00
8:53 pm 20:53 Cloudy 70 21.1 66 18.9 87 87 SE 7 11 30.25 1024 8 13 0.00 0.00
9:44 pm 21:44 Mostly Cloudy 69 20.6 65 18.3 87 87 SE 8 13 30.25 1024 8 13 0.00 0.00
9:53 pm 21:53 Mostly Cloudy 69 20.6 65 18.3 87 87 SSE 9 15 30.26 1025 8 13 0.00 0.00
10:10 pm 22:10 Mostly Cloudy 69 20.6 65 18.3 87 87 SSE 9 15 30.26 1025 8 13 0.00 0.00
10:41 pm 22:41 Partly Cloudy 68 20 65 18.3 90 90 SE 12 19 30.25 1024 7 11 0.00 0.00
10:53 pm 22:53 Mostly Clear with Mist and Fog 68 20 65 18.3 90 90 SE 12 19 30.26 1025 6 10 0.00 0.00
11:53 pm 23:53 Cloudy with Mist and Fog 68 20 65 18.3 90 90 SE 9 15 30.25 1024 5 8 0.00 0.00

Powered by AerisWeather